DW3039 Karjalohja FI current weather conditions

sailwx.info

Wind from 206 at 5 knots gusting 12

Air temperature 12.2° C
Dewpoint 6.7° C

Last reported at 2015-May-29 15:45 UTC.
Time now 2015-May-29 16:28 UTC

Location: N 60°16' E 023°41'.
View on Google Maps.

See reports from other nearby stations

  
Tides and Currents Weather Stations Pressure Air Temp Water Temp Dewpoint Dewpoint Depression Visibility Wind Speed Wind Dir Waves Ship Positions
date/time (UTC)wind fromknots sea level pressurealtimeterstation pressurevisibilityair tempwater tempwave heightnotes
2015-May-29 15:45 206 5 gusting 12 12.2
2015-May-29 15:35 176 1 gusting 13 12.2
2015-May-29 15:25 192 6 gusting 13 12.2
2015-May-29 15:14 203 5 gusting 16 12.2
2015-May-29 15:04 194 6 gusting 14 12.8
2015-May-29 14:54 221 7 gusting 16 12.8
2015-May-29 14:44 137 2 gusting 12 12.8
2015-May-29 14:34 218 5 gusting 10 12.8
2015-May-29 14:24 214 4 gusting 18 12.8
2015-May-29 14:14 204 5 gusting 12 12.8
2015-May-29 14:04 196 7 gusting 13 12.8
2015-May-29 13:54 191 6 gusting 17 12.8
2015-May-29 13:44 209 3 gusting 8 12.8
2015-May-29 13:34 201 6 gusting 9 12.8
2015-May-29 13:24 189 4 gusting 13 12.8
2015-May-29 13:14 216 6 gusting 12 12.8
2015-May-29 13:04 194 6 gusting 13 12.8
2015-May-29 12:54 205 3 gusting 13 12.8
2015-May-29 12:44 200 6 gusting 14 12.8
2015-May-29 12:34 226 7 gusting 11 12.8
2015-May-29 12:24 201 3 gusting 9 12.8
2015-May-29 12:14 211 4 gusting 12 12.2
2015-May-29 12:04 212 3 gusting 10 12.2
2015-May-29 11:54 215 0 gusting 6 12.2
2015-May-29 11:44 203 2 gusting 10 12.2
2015-May-29 11:34 195 0 gusting 6 11.7
2015-May-29 11:22 196 4 gusting 8 11.7
2015-May-29 11:12 193 2 gusting 6 11.1
2015-May-29 11:02 194 1 gusting 10 11.1
2015-May-29 10:52 193 3 gusting 6 11.1
2015-May-29 10:41 189 4 gusting 8 11.1
2015-May-29 10:31 175 0 gusting 7 11.1
2015-May-29 10:21 184 3 gusting 6 11.1
2015-May-29 10:10 167 0 gusting 6 11.1
2015-May-29 09:59 141 0 gusting 3 11.1
2015-May-29 09:49 143 0 gusting 4 11.1
2015-May-29 09:39 095 10.6
2015-May-29 09:29 117 10.6
2015-May-29 09:19 195 1 gusting 6 10.6
2015-May-29 09:09 066 10.6
2015-May-29 08:59 166 2 gusting 7 11.1
2015-May-29 08:49 139 2 gusting 9 11.1
2015-May-29 08:39 148 1 gusting 8 11.1
2015-May-29 08:29 168 0 gusting 6 11.7
2015-May-29 08:19 168 3 gusting 7 11.7
2015-May-29 08:09 143 0 gusting 6 11.7
2015-May-29 07:59 141 4 gusting 8 11.1
2015-May-29 07:48 164 0 gusting 7 11.1
2015-May-29 07:38 191 11.1
2015-May-29 07:28 143 1 gusting 7 11.1
2015-May-29 07:18 120 2 gusting 7 11.1
2015-May-29 07:07 144 0 gusting 7 11.1
2015-May-29 06:57 155 1 gusting 6 11.1
2015-May-29 06:47 133 1 gusting 6 11.1
2015-May-29 06:37 150 1 gusting 5 10.6
2015-May-29 06:27 145 1 gusting 7 10.6
2015-May-29 06:17 131 3 gusting 7 10.6
2015-May-29 06:07 146 1 gusting 6 10.6
2015-May-29 05:57 187 1 gusting 7 10.6
2015-May-29 05:47 155 0 gusting 6 10.6
2015-May-29 05:37 149 10.6
2015-May-29 05:27 163 10.6
2015-May-29 05:17 142 0 gusting 5 10.6
2015-May-29 05:07 135 10.6
2015-May-29 04:57 146 0 gusting 3 10.6
2015-May-29 04:47 103 10.6
2015-May-29 04:37 118 0 gusting 5 10.6
2015-May-29 04:27 128 10.6
2015-May-29 04:17 074 10.6
2015-May-29 04:07 147 1 gusting 6 10.6
2015-May-29 03:57 145 0 gusting 3 10.0
2015-May-29 03:47 122 9.4
2015-May-29 03:37 091 9.4
2015-May-29 03:27 117 0 gusting 4 9.4
2015-May-29 03:17 095 9.4
2015-May-29 03:07 095 9.4
2015-May-29 02:57 120 0 gusting 3 9.4
2015-May-29 02:46 135 9.4
2015-May-29 02:36 135 8.9
2015-May-29 02:26 135 8.9
2015-May-29 02:16 135 8.9
2015-May-29 02:06 135 8.9
2015-May-29 01:56 135 8.9
2015-May-29 01:46 135 8.3
2015-May-29 01:36 135 8.3
2015-May-29 01:26 135 8.3
2015-May-29 01:16 135 8.3
2015-May-29 01:06 135 8.3
2015-May-29 00:56 135 8.3
2015-May-29 00:46 135 8.9
2015-May-29 00:36 135 8.9
2015-May-29 00:26 135 8.9
2015-May-29 00:16 135 8.9
2015-May-29 00:06 134 0 gusting 3 8.9
2015-May-28 23:56 163 8.9
2015-May-28 23:46 136 8.9
2015-May-28 23:36 132 8.9
2015-May-28 23:26 132 8.9
2015-May-28 23:16 132 9.4
2015-May-28 23:06 132 9.4
2015-May-28 22:56 122 9.4
2015-May-28 22:46 122 9.4
2015-May-28 22:36 138 9.4
2015-May-28 22:26 203 9.4
2015-May-28 22:16 203 9.4
2015-May-28 22:06 203 10.0
2015-May-28 21:56 203 10.0
2015-May-28 21:46 203 10.0
2015-May-28 21:36 203 10.0
2015-May-28 21:26 203 10.0
2015-May-28 21:16 203 10.6
2015-May-28 21:06 203 10.6
2015-May-28 20:56 203 10.6
2015-May-28 20:46 203 10.6
2015-May-28 20:36 203 11.1
2015-May-28 20:26 203 11.1
2015-May-28 20:16 203 11.1
2015-May-28 20:06 203 11.1
2015-May-28 19:56 203 11.7
2015-May-28 19:46 203 11.7
2015-May-28 19:36 203 11.7
2015-May-28 19:26 203 12.2
2015-May-28 19:16 203 12.2
2015-May-28 19:06 203 12.8
2015-May-28 18:56 203 12.8
2015-May-28 18:46 203 13.3
2015-May-28 18:35 197 0 gusting 6 13.3
2015-May-28 18:25 223 3 gusting 6 13.3
2015-May-28 18:15 213 1 gusting 6 13.9
2015-May-28 18:05 218 2 gusting 7 13.9
2015-May-28 17:55 207 2 gusting 10 13.9
2015-May-28 17:45 214 4 gusting 8 14.4
2015-May-28 17:35 209 2 gusting 9 14.4
2015-May-28 17:25 204 2 gusting 6 15.0
2015-May-28 17:15 232 0 gusting 9 15.0
2015-May-28 17:05 212 2 gusting 8 15.0
2015-May-28 16:55 199 3 gusting 8 15.0
2015-May-28 16:45 212 3 gusting 10 15.0
2015-May-28 16:35 201 1 gusting 8 15.0
2015-May-28 16:25 208 3 gusting 9 15.0
2015-May-28 16:15 207 2 gusting 8 15.0
2015-May-28 16:05 221 5 gusting 10 15.6
2015-May-28 15:55 196 2 gusting 9 15.6
2015-May-28 15:45 230 4 gusting 10 15.6
2015-May-28 15:35 207 6 gusting 13 15.6
2015-May-28 15:25 204 6 gusting 10 15.6
2015-May-28 15:15 211 6 gusting 12 15.6
2015-May-28 15:05 220 5 gusting 11 15.6
2015-May-28 14:55 210 4 gusting 13 16.1
2015-May-28 14:45 206 6 gusting 10 16.1
2015-May-28 14:35 203 3 gusting 11 16.1
2015-May-28 14:25 192 4 gusting 10 16.1
2015-May-28 14:15 220 7 gusting 12 16.7
2015-May-28 14:05 215 6 gusting 10 16.7
2015-May-28 13:55 187 4 gusting 8 16.7
2015-May-28 13:45 190 4 gusting 9 16.7
2015-May-28 13:35 218 4 gusting 8 16.7
2015-May-28 13:25 201 5 gusting 9 16.7
2015-May-28 13:15 203 4 gusting 12 16.7
2015-May-28 13:05 200 3 gusting 9 16.7
2015-May-28 12:55 226 3 gusting 9 16.7
2015-May-28 12:45 213 3 gusting 8 16.7
2015-May-28 12:35 214 4 gusting 13 17.2
2015-May-28 12:25 223 5 gusting 11 17.2
2015-May-28 12:15 231 5 gusting 13 16.7
2015-May-28 12:05 217 7 gusting 12 16.7
2015-May-28 11:55 215 6 gusting 10 17.2
2015-May-28 11:45 200 6 gusting 11 17.2
2015-May-28 11:35 214 5 gusting 9 17.2
2015-May-28 11:25 196 4 gusting 11 17.2
2015-May-28 11:15 186 3 gusting 10 17.2
2015-May-28 11:05 199 5 gusting 11 17.2
2015-May-28 10:55 200 3 gusting 8 17.2
2015-May-28 10:45 254 4 gusting 7 16.7
2015-May-28 10:35 248 3 gusting 8 16.1
2015-May-28 10:24 258 3 gusting 7 16.1
2015-May-28 10:14 235 0 gusting 12 16.1
2015-May-28 10:04 233 1 gusting 4 15.6
2015-May-28 09:54 253 3 gusting 5 15.6
2015-May-28 09:44 197 0 gusting 6 15.6
2015-May-28 09:34 292 0 gusting 8 16.1
2015-May-28 09:24 236 0 gusting 3 16.1
2015-May-28 09:14 257 1 gusting 10 16.7
2015-May-28 09:04 251 0 gusting 6 16.7
2015-May-28 08:54 234 3 gusting 7 16.1
2015-May-28 08:44 200 0 gusting 6 15.6
2015-May-28 08:34 229 2 gusting 6 15.6
2015-May-28 08:24 270 1 gusting 8 15.6
2015-May-28 08:14 162 15.6
2015-May-28 08:04 318 2 gusting 6 15.6
2015-May-28 07:54 272 2 gusting 7 15.0
2015-May-28 07:44 249 5 gusting 8 15.0
2015-May-28 07:34 213 2 gusting 6 15.0
2015-May-28 07:12 248 1 gusting 8 14.4
2015-May-28 07:02 247 4 gusting 7 13.9
2015-May-28 06:52 237 13.3
2015-May-28 06:42 349 0 gusting 6 13.3
2015-May-28 06:32 254 12.2
2015-May-28 06:22 251 0 gusting 7 12.2
2015-May-28 06:12 335 4 gusting 7 12.2
2015-May-28 06:02 355 2 gusting 6 11.7
2015-May-28 05:52 341 3 gusting 6 11.7
2015-May-28 05:42 327 11.7
2015-May-28 05:32 249 3 gusting 6 11.7
2015-May-28 05:22 244 3 gusting 6 11.7
2015-May-28 05:12 263 0 gusting 4 11.7
2015-May-28 05:02 340 0 gusting 5 11.7
2015-May-28 04:52 268 1 gusting 6 11.7
2015-May-28 04:42 245 0 gusting 4 11.1
2015-May-28 04:32 306 10.6
2015-May-28 04:22 018 2 gusting 6 10.6
2015-May-28 04:12 298 1 gusting 5 10.6
2015-May-28 04:02 002 10.0
2015-May-28 03:52 248 0 gusting 4 9.4
2015-May-28 03:42 263 8.9
2015-May-28 03:32 272 8.3
2015-May-28 03:22 324 7.8
2015-May-28 03:11 241 7.8
2015-May-28 03:01 276 7.8
2015-May-28 02:51 276 7.2
2015-May-28 02:41 276 7.2
2015-May-28 02:31 276 7.2
2015-May-28 02:21 276 7.2
2015-May-28 02:11 276 7.8
2015-May-28 02:01 276 7.8
2015-May-28 01:51 304 7.8
2015-May-28 01:41 304 7.8
2015-May-28 01:31 255 7.8
2015-May-28 01:21 302 7.8
2015-May-28 01:11 213 7.8
2015-May-28 01:01 354 7.8
2015-May-28 00:51 354 7.8
2015-May-28 00:41 324 0 gusting 5 7.8
2015-May-28 00:31 325 1 gusting 6 8.3
2015-May-28 00:21 283 1 gusting 5 8.3
2015-May-28 00:11 257 2 gusting 6 8.3
2015-May-28 00:01 248 8.3
2015-May-27 23:51 043 8.9
2015-May-27 23:41 287 0 gusting 6 8.9
2015-May-27 23:31 249 3 gusting 7 8.9
2015-May-27 23:21 263 0 gusting 6 8.9
2015-May-27 23:11 227 9.4
2015-May-27 23:01 251 1 gusting 4 9.4
2015-May-27 22:51 245 1 gusting 5 9.4
2015-May-27 22:41 241 1 gusting 6 9.4
2015-May-27 22:31 229 0 gusting 5 9.4
2015-May-27 22:21 196 10.0
2015-May-27 22:11 210 10.0
2015-May-27 22:01 243 2 gusting 8 10.0
2015-May-27 21:51 247 10.0
2015-May-27 21:41 245 3 gusting 6 10.0
2015-May-27 21:31 241 3 gusting 6 10.6
2015-May-27 21:21 056 10.6
2015-May-27 21:11 241 1 gusting 5 10.6
2015-May-27 21:01 242 1 gusting 4 10.6
2015-May-27 20:51 230 1 gusting 3 11.1
2015-May-27 20:41 214 11.1
2015-May-27 20:31 214 11.1
2015-May-27 20:21 243 0 gusting 4 11.1
2015-May-27 20:11 221 11.7
2015-May-27 20:01 225 11.7
2015-May-27 19:51 244 1 gusting 5 11.7
2015-May-27 19:41 223 1 gusting 5 12.2
2015-May-27 19:31 245 1 gusting 4 12.2
2015-May-27 19:21 254 12.2
2015-May-27 19:11 235 12.8
2015-May-27 19:01 235 12.8
2015-May-27 18:51 224 13.3
2015-May-27 18:41 236 1 gusting 6 13.3
2015-May-27 18:30 238 0 gusting 6 13.3
2015-May-27 18:20 244 0 gusting 6 13.9
2015-May-27 18:10 274 0 gusting 11 13.9
2015-May-27 18:00 240 1 gusting 8 13.9
2015-May-27 17:50 227 4 gusting 11 13.9
2015-May-27 17:40 229 4 gusting 6 14.4
2015-May-27 17:30 207 0 gusting 6 14.4
2015-May-27 17:20 241 2 gusting 6 15.0
2015-May-27 17:10 248 2 gusting 8 15.0
2015-May-27 17:00 308 15.0
2015-May-27 16:50 203 6 gusting 12 15.0
2015-May-27 16:40 246 5 gusting 9 15.0
2015-May-27 16:30 225 0 gusting 12 15.0
2015-May-27 16:20 231 4 gusting 11 15.6
2015-May-27 16:10 231 5 gusting 9 15.6
2015-May-27 16:00 235 2 gusting 8 15.6